Tracking 26321 objects as of 27-Nov-2022
HD Live streaming from Space Station
objects crossing your sky now

STARLINK-5231

Track STARLINK-5231 now!
10-day predictions
STARLINK-5231 is classified as:


NORAD ID: 54182
Int'l Code: 2022-141AB
Perigee: 354.5 km
Apogee: 359.4 km
Inclination: 53.2 °
Period: 91.5 minutes
Semi major axis: 6727 km
RCS: Unknown
Launch date: October 28, 2022
Source: United States (US)
Launch site: AIR FORCE WESTERN TEST RANGE (AFWTR)
aabbcc
Your satellite tracking list
Your tracking list is empty




NASA's NSSDC Master Catalog

Two Line Element Set (TLE):
1 54182U 22141AB  22330.91667824 -.00016683  00000-0 -11465-3 0  9999
2 54182  53.2156 356.0500 0003666   9.4317  91.7971 15.73191668  1303
Source of the keplerian elements: AFSPC